This demonstration page uses our WeatherBlox Daily Observations layout. Learn more.

Left ArrowRight Arrow

40.92945, -100.16068

Hourly Observations for February 9, 2015

Temp ( °F °C ) Dew Point ( °F °C ) Humidity (%) Winds ( mph kmh ) Pressure ( in mb ) Visibility ( mi km ) Precip ( " mm )
12:15 am 00:15 Clear 32 -0.1 28 -2.1 87 87 WNW 3 6 30.21 1023 10 16 N/A
12:35 am 00:35 Clear 30 -1 27 -2.6 89 89 NNW 5 7 30.21 1023 10 16 N/A
12:55 am 00:55 Clear 29 -1.4 27 -2.8 90 90 NNW 5 7 30.21 1023 10 16 N/A
1:15 am 01:15 Clear 30 -1 28 -2.3 91 91 WNW 6 9 30.24 1024 10 16 N/A
1:35 am 01:35 Clear 30 -1 28 -2.4 90 90 WNW 5 7 30.24 1024 10 16 N/A
1:55 am 01:55 Clear 31 -0.3 29 -1.8 90 90 NW 6 9 30.21 1023 10 16 N/A
2:15 am 02:15 Clear 31 -0.5 29 -1.7 92 92 NW 6 9 30.24 1024 10 16 N/A
2:35 am 02:35 Clear 31 -0.7 28 -2.1 90 90 WNW 6 9 30.24 1024 10 16 N/A
2:55 am 02:55 Clear 30 -1.2 28 -2.4 92 92 WNW 7 11 30.24 1024 10 16 N/A
3:15 am 03:15 Clear 31 -0.5 29 -1.6 92 92 WNW 8 13 30.24 1024 10 16 N/A
3:35 am 03:35 Clear 31 -0.5 28 -2 90 90 NW 8 13 30.24 1024 10 16 N/A
3:55 am 03:55 Clear 32 0 29 -1.5 90 90 WNW 9 15 30.24 1024 10 16 N/A
4:15 am 04:15 Clear 31 -0.8 28 -2.3 90 90 NW 6 9 30.24 1024 10 16 N/A
4:35 am 04:35 Clear 30 -1 28 -2.2 92 92 NW 6 9 30.24 1024 10 16 N/A
4:55 am 04:55 Clear 29 -1.6 27 -2.8 92 92 W 7 11 30.27 1025 10 16 N/A
5:15 am 05:15 Clear 31 -0.8 28 -2.2 90 90 WNW 7 11 30.24 1024 10 16 N/A
5:35 am 05:35 Clear 31 -0.8 28 -2.1 91 91 WNW 8 13 30.24 1024 10 16 N/A
5:55 am 05:55 Clear 30 -1.1 28 -2.5 90 90 WNW 6 9 30.24 1024 10 16 N/A
6:15 am 06:15 Clear 29 -1.5 27 -2.6 92 92 WNW 5 7 30.21 1023 10 16 N/A
6:35 am 06:35 Clear 29 -1.8 26 -3.1 91 91 W 5 7 30.24 1024 10 16 N/A
6:55 am 06:55 Clear 29 -1.8 27 -3 92 92 W 7 11 30.27 1025 10 16 N/A
7:15 am 07:15 Clear 29 -1.4 28 -2.5 92 92 WNW 7 11 30.24 1024 10 16 N/A
7:35 am 07:35 Clear 29 -1.7 27 -2.9 92 92 W 6 9 30.27 1025 10 16 N/A
7:55 am 07:55 Sunny 29 -1.8 27 -3 92 92 W 6 9 30.27 1025 10 16 N/A
8:15 am 08:15 Sunny 30 -1.1 28 -2.1 93 93 WNW 5 7 30.24 1024 10 16 N/A
8:35 am 08:35 Sunny 32 0 30 -1.1 92 92 Calm 30.24 1024 10 16 N/A
8:55 am 08:55 Sunny 34 1.1 32 -0.2 91 91 Calm 30.24 1024 10 16 N/A
9:15 am 09:15 Sunny 36 2.4 32 0 84 84 W 3 6 30.21 1023 10 16 N/A
9:35 am 09:35 Sunny 38 3.3 33 0.5 82 82 W 3 6 30.21 1023 10 16 N/A
9:55 am 09:55 Sunny 40 4.7 34 1 77 77 WNW 3 6 30.18 1022 10 16 N/A
10:15 am 10:15 Sunny 42 5.6 34 1.3 74 74 Calm 30.18 1022 10 16 N/A
10:35 am 10:35 Sunny 44 6.9 35 1.6 69 69 Calm 30.18 1022 10 16 N/A
10:55 am 10:55 Sunny 47 8.4 35 1.8 63 63 E 3 6 30.15 1021 10 16 N/A
11:15 am 11:15 Sunny 50 10.2 36 2 57 57 E 6 9 30.12 1020 10 16 N/A
11:35 am 11:35 Sunny 51 10.8 37 3 59 59 ESE 7 11 30.09 1019 10 16 N/A
11:55 am 11:55 Sunny 53 11.8 38 3.1 56 56 ESE 6 9 30.09 1019 10 16 N/A
12:15 pm 12:15 Sunny 55 12.9 38 3.1 52 52 ESE 7 11 30.09 1019 10 16 N/A
12:35 pm 12:35 Sunny 57 13.8 38 3.6 50 50 ESE 8 13 30.03 1017 10 16 N/A
12:55 pm 12:55 Sunny 59 15.1 38 3.6 46 46 ESE 9 15 30.03 1017 10 16 N/A
1:15 pm 13:15 Sunny 62 16.6 35 1.7 37 37 S 12 19 29.97 1015 10 16 N/A
1:35 pm 13:35 Sunny 63 17.4 33 0.3 32 32 S 14 22 29.97 1015 10 16 N/A
1:55 pm 13:55 Sunny 63 17.3 33 0.5 32 32 S 13 20 29.97 1015 10 16 N/A
2:15 pm 14:15 Sunny 63 17.4 34 1 33 33 S 12 19 29.97 1015 10 16 N/A
2:35 pm 14:35 Sunny 64 17.5 34 1.3 34 34 S 13 20 29.97 1015 10 16 N/A
2:55 pm 14:55 Sunny 64 18 35 1.7 34 34 S 14 22 29.94 1014 10 16 N/A
3:15 pm 15:15 Sunny 65 18.2 35 1.9 34 34 SSE 15 24 29.94 1014 10 16 N/A
3:35 pm 15:35 Sunny 65 18.5 36 2.2 34 34 SSE 12 19 29.91 1013 10 16 N/A
3:55 pm 15:55 Sunny 65 18.1 37 2.8 36 36 SSE 16 26 29.91 1013 10 16 N/A
4:15 pm 16:15 Sunny 63 17.4 40 4.3 42 42 SSE 20 31 29.91 1013 10 16 N/A
4:35 pm 16:35 Sunny 61 16.2 40 4.6 46 46 SSE 16 26 29.94 1014 10 16 N/A
4:55 pm 16:55 Sunny 60 15.4 40 4.7 49 49 SE 12 19 29.94 1014 10 16 N/A
5:15 pm 17:15 Sunny 58 14.3 40 4.6 52 52 SE 15 24 29.94 1014 10 16 N/A
5:35 pm 17:35 Sunny 56 13.2 40 4.7 57 57 SE 15 24 29.94 1014 10 16 N/A
5:55 pm 17:55 Sunny 53 11.7 41 5 64 64 SE 15 24 29.97 1015 10 16 N/A
6:15 pm 18:15 Clear 51 10.3 41 4.9 69 69 SE 14 22 29.97 1015 10 16 N/A
6:35 pm 18:35 Clear 48 9.1 40 4.6 74 74 SE 15 24 30.00 1016 10 16 N/A
6:55 pm 18:55 Clear 46 7.9 40 4.2 78 78 SE 16 26 30.00 1016 10 16 N/A
7:15 pm 19:15 Clear 44 6.8 39 3.7 81 81 SE 14 22 30.00 1016 10 16 N/A
7:35 pm 19:35 Clear 43 6 38 3.5 84 84 SE 13 20 30.03 1017 10 16 N/A
7:55 pm 19:55 Clear 41 5.1 37 3 86 86 SE 14 22 30.03 1017 10 16 N/A
8:15 pm 20:15 Partly Cloudy 39 4.1 37 2.6 90 90 SSE 17 28 30.03 1017 7 11 N/A
8:35 pm 20:35 Cloudy with Mist and Fog 39 4.1 37 3 93 93 SSE 13 20 30.03 1017 5 8 N/A
8:55 pm 20:55 Cloudy with Mist and Fog 39 4.1 38 3.1 93 93 SE 15 24 30.03 1017 3 5 N/A
9:15 pm 21:15 Cloudy with Mist and Fog 40 4.2 38 3.3 94 94 SSE 17 28 30.03 1017 3 5 N/A
9:35 pm 21:35 Cloudy with Mist and Fog 40 4.3 38 3.5 95 95 SE 13 20 30.03 1017 3 5 N/A
9:55 pm 21:55 Cloudy with Mist and Fog 39 4 38 3.1 94 94 SE 14 22 30.03 1017 3 4 N/A
10:15 pm 22:15 Cloudy with Mist and Fog 39 4 38 3.1 94 94 SSE 18 30 30.03 1017 3 4 N/A
10:35 pm 22:35 Cloudy with Mist and Fog 38 3.6 37 2.8 95 95 SSE 18 30 30.03 1017 2 2 N/A
10:55 pm 22:55 Cloudy with Mist and Fog 39 3.7 37 3 95 95 S 18 30 30.03 1017 3 4 N/A
11:15 pm 23:15 Cloudy with Mist and Fog 38 3.6 37 3 96 96 SSE 13 20 30.03 1017 2 3 N/A
11:35 pm 23:35 Cloudy with Mist and Fog 38 3.5 37 2.8 95 95 S 15 24 30.03 1017 2 2 N/A
11:55 pm 23:55 Cloudy with Mist and Fog 39 3.7 37 3 95 95 SSE 13 20 30.03 1017 3 4 N/A

Powered by AerisWeather